Location: Mount Kobau Star Party
(49.1167°N, 119.7333°W)
Time: 12:33:05
(UTC-07:00)

ARIANE 6 FM1 Upper Stage - Pass Details

Date: 18 April 2026
Orbit: 526 x 601 km, 62.0° (Epoch: 18 May)

Event Time Altitude Azimuth Distance (km) Brightness Sun altitude
Rises 20:52:33 0° 278° (W) 2,709 7.6 -9.3°
Reaches altitude 10° 20:55:25 10° 299° (WNW) 1,804 6.9 -9.7°
Maximum altitude 20:58:08 17° 341° (NNW) 1,394 5.4 -10.1°
Drops below altitude 10° 21:00:51 10° 24° (NNE) 1,786 5.3 -10.4°
Sets 21:03:40 0° 45° (NE) 2,671 6.0 -10.8°
